YZ-1 R/B, 44795

Orbit data source: Space-Track

YZ-1 R/B, 44795 is space debris originally from a launch on Sat, 23 Nov 2019 UTC launched from the Xichang Space Center, China (XSC). Debris objects in space refer to the collection of defunct objects orbiting the Earth. Examples of debris include non-operational satellites, rocket bodies, and fragments generated from explosions, collisions, or faulty payload assembly.

Loading next visibility...
Identifier
44795, 2019-078C
Orbit
Active
Last TLE update
16 hours ago
Origin
Manufacturer
CALT
Mission
Spacecraft
Bus & Motor
YZ-1, Unknown motor
Mass
~2,075 kg wet, ~2,075 kg dry
Launch date (UTC)
2019-11-23 (6 years ago)
Launch vehicle
Unknown
Launch site
Xichang Space Center, China (XSC)
Object type
Payload
Rocket body
Debris
Shape & HBR
Double Cone, 4 m
Radar Cross Section
5.890 m², Large (>1 m²)

Expand to show TLE details & history

TLE from 16 hours ago
0 YZ-1 R/B
1 44795U 19078C   25181.75838261 -.00000093  00000-0  00000+0 0  9993
2 44795  54.5251 319.0922 0074488  46.1902 314.4151  1.78050156 36441
Epoch: 2025-06-30T18:12Z
TLE epoch observation values (Epoch: 2025-06-30T18:12:04.257Z)
Latitude
-0.00001°
Longitude
126.99314°
Altitude
22,227.842 km
Speed
3.743 km/s
True Right ascension
21h 16m 17s
True Declination
0° 00' 00"
Sunlit
Object was in daylight at epoch
Visualization orbit readout
Latitude
50.63484°
Longitude
-172.89741°
Altitude
22,189.778 km
Speed
3.749 km/s
Apparent Right ascension
02h 12m 50s
Apparent Declination
49° 23' 60"
Sunlit
Object is in daylight
Visualization observer readout
Local Sidereal Time
21:57:47
Azimuth
55.73° ENE
Elevation
45.061°
Doppler factor
1
Orbital elements
Apogee altitude
22,590.65 km
Perigee altitude
22,162.275 km
Semi-major axis
28,754.599 km
Eccentricity
0.00745
Inclination
54.5251°
RAAN
319.0922°
Arg. of periapsis
46.1902°
True anomaly
Unknown
Mean anomaly
314.4151°
Eccentric anomaly
Unknown
Mean motion
0.44513 °/min
Orbital period
808.76 mins
BSTAR
0
Loading maneuver chart data...
Loading SW <> Apogee altitude chart data...
Loading historical data...
Loading historical data...
Loading historical data...
Loading historical data...
Loading historical data...
Loading historical data...
Loading historical data...
Other satellites on launch #78 in the year 2019 (2019-11-23 UTC)

YZ-1 R/B Visibility forecast

Observer location: undefined°, undefined°

Span
Click to sort rows by Start time (UTC) header in descending order
Start Az.
Max El. time (UTC)
Max El. Az.
Max El.
End time (UTC)
End Az.
106 mins2025-07-01 10:19:21.834Z55.76° ENE2025-07-01 10:19:21.834Z55.76° ENE35.294°2025-07-01 12:05:21.834Z49.308° ENE
50 mins2025-07-02 09:29:21.834Z197.817° SSW2025-07-02 10:19:21.834Z201.7° SSW26.313°2025-07-02 10:19:21.834Z201.7° SSW
|